Tuesday, December 18, 2018, 4:17 PM EST
Back to Local

KNYC, New York City Central Park

Location: New York, NY, United States Lat: 40.783
Local Time: 4:17 PM EST (21:17 GMT) Lon: -73.967
Time Zone: US/Eastern Elev: 157 ft

Show me the last for .
Show Coded

Time T Td Feel RH Dir Speed Gust Alt SLP Vis Weather Sky Remarks
2018-12-18 15:51 34 12 - 39 - - - 30.10 30.08 10 CLR None
2018-12-18 14:51 35 12 - 37 - - - 30.07 30.05 10 CLR None
2018-12-18 13:51 34 11 - 37 - - - 30.06 30.04 10 CLR None
2018-12-18 12:51 34 10 - 36 - - - 30.06 30.03 10 CLR 6-hr Min Temp (1pm): 30.9°F
6-hr Max Temp (1pm): 34.0°F
2018-12-18 11:51 33 11 - 39 - - - 30.04 30.02 10 CLR None
2018-12-18 10:51 32 12 - 42 - - - 30.05 30.03 10 FEW047 None
2018-12-18 09:51 32 13 - 44 - - - 30.05 30.02 10 CLR None
2018-12-18 08:51 32 14 - 46 - - - 30.03 30.00 10 BKN044 None
2018-12-18 07:51 31 14 - 48 - - - 29.98 29.96 10 CLR None
2018-12-18 06:51 32 14 - 46 - - - 29.95 29.93 10 CLR 6-hr Min Temp (7am): 32.0°F
6-hr Max Temp (7am): 39.0°F
2018-12-18 05:51 33 14 - 44 - - - 29.93 29.90 10 FEW050 None
2018-12-18 04:51 34 14 - 43 - - - 29.91 29.88 10 BKN050 None
2018-12-18 03:51 36 16 - 43 - - - 29.88 29.85 10 BKN048 None
2018-12-18 02:51 37 18 - 45 - - - 29.85 29.82 10 OVC050 None
2018-12-18 01:51 38 18 - 43 - - - 29.82 29.80 10 OVC050 None
2018-12-18 00:51 39 21 - 48 - - - 29.80 29.77 10 BKN050 OVC055 6-hr Min Temp (1am): 39.0°F
6-hr Max Temp (1am): 43.0°F
2018-12-17 23:51 41 21 - 44 - - - 29.79 29.77 10 OVC050 24-hr Min Temp (12am): 37.0°F
24-hr Max Temp (12am): 46.0°F
2018-12-17 22:51 41 23 - 48 - - - 29.79 29.77 10 BKN049 OVC060 None
2018-12-17 21:51 41 24 - 50 - - - 29.79 29.76 10 SCT049 BKN065 None
2018-12-17 20:51 42 24 - 48 - - - 29.79 29.77 10 OVC055 None
2018-12-17 19:51 43 23 - 45 - - - - - 10 BKN050 OVC060 None
2018-12-17 18:51 43 23 - 44 - - - 29.79 29.76 10 OVC050 6-hr Min Temp (7pm): 42.1°F
6-hr Max Temp (7pm): 45.0°F
2018-12-17 17:51 43 23 - 44 - - - 29.77 29.74 10 OVC050 None
2018-12-17 16:51 43 24 - 46 - - - 29.75 29.72 10 OVC047 None

Support USWX by starting your Amazon purchase here.